Voltar ao catálogo

OPS 7869

DMSP 4B F1

AtivoMeteoSSO
NORAD 3266·PAYLOAD·🇺🇸 United States

Lançado May 23, 1968 de Vandenberg Space Force Base

Loading…

Próximas Passagens (próximas 24 horas)

TLE

AtualizadoSource: Space-Track

Época: Sep 14, 2026, 00:15 UTC

1 03266U 68042A   26257.01051326  .00000022  00000-0  31681-4 0  9994
2 03266  98.5576  84.3606 0053356  48.0682 312.5023 14.15910476925703

Acompanhe OPS 7869 em tempo real com AllMySat

Download on the App Store